Aeroporto :
LOGIN :

Iscrizione | Disclaimer

   EN    FR    IT 

 










Sommario :    VFR   VFR Marginale   IFR   IFR Intensivo   IFR Molto Intensivo
Visibilità : 
Base nubi : 
>= 8 km
>= 3000ft
5 / 8 km
1000 / 3000 ft
1500m / 5 km
500 / 1000 ft
800 / 1500m
200 / 500 ft
< 800m
< 200 ft
Simboli :   Temporali  Nebbia  Neve Forte  Precipitazioni Forti  Vento > 20 kt
SIGMETs :   Varie  Temporali  Ghiacco  Turbolenza  Onda orograficha  Ceneri Vulcaniche






- Altitudine del aeroporto : 75 ft
- Codice IATA : MRH


EGYM - RAF Marham

ULTIMO METAR :
  • 220550Z 22013KT 9999 SCT012 BKN020 12/10 Q1004 GRN

METARs OBSOLETI :
  • 220450Z 21013KT 9999 FEW020 SCT035 12/10 Q1003 BLU
  • 220350Z 22014KT 9999 BKN030 12/10 Q1003 BLU

TAF AMD TAF EGYM
Valido dal 22 a 06 ore il 22 a 15 ore UTC


220621Z 2206/2215 22012KT 9999 SCT025
TEMPO 2206/2214 SCT020
PROB30
TEMPO 2206/2210 22015G25KT 7000 -SHRA SCT012



MetMap, La meteo Aeronautica in un colpo d'occhio ! - Copyright ORBIFLY Dicembre 2007 - Disclaimer

ORBIFLY MET'MAP TEAM :

Programmazione e sviluppo : Alexandra Zaïnal
Concezione : Baudouin d'Aumeries
Aiuto per la programmazione : Marc-Olivier Méhu
Supporto tecnico e logistico : Manuel Goepfert
Aiuto per la traduzione : Arnaldo La Scala

Contatto : metmap@orbifly.com




FONTI E CREDITI :

   NOAA